Lancaster, SC

2:52 AM EDT on October 18, 2017 (GMT -0400)
Lancaster County-McWhirter

Weather History for KLKR - March, 2014

Change the Weather History Date:

Friday, March 14, 2014

  Actual Average (KUZA) Record (KUZA)
Temperature  
Mean Temperature 44 °F -  
Max Temperature 64 °F 64 °F 84 °F (1973)
Min Temperature 23 °F 41 °F 21 °F (1960)
Degree Days  
Heating Degree Days 22    
Moisture  
Dew Point 21 °F    
Average Humidity 53    
Maximum Humidity 100    
Minimum Humidity 15    
Precipitation  
Precipitation 0.00 in - - ()
Sea Level Pressure  
Sea Level Pressure 30.23 in    
Wind  
Wind Speed 2 mph (SSW)    
Max Wind Speed 12 mph    
Max Gust Speed 17 mph    
Visibility 10 miles    
Events      
Averages and records for this station are not official NWS values.
T = Trace of Precipitation, MM = Missing Value Source: NWS Daily Summary

Daily Weather History Graph

Daily Weather History Graph

Search for Another Location

Airport or City:

Trip Planner

Search our weather history database for the weather conditions in past years. The results will help you decide how hot, cold, wet, or windy it might be!

Date:

Astronomy

Mar. 14, 2014 Rise Set
Actual Time 7:35 AM EDT 7:30 PM EDT
Civil Twilight 7:10 AM EDT 7:55 PM EDT
Nautical Twilight 6:41 AM EDT 8:24 PM EDT
Astronomical Twilight 6:11 AM EDT 8:54 PM EDT
Moon 5:53 PM EDT (3/14) 6:10 AM EDT (3/14)
Length of Visible Light 12h 45m
Length of Day
11h 54m
Waxing Gibbous, 96% of the Moon is Illuminated
Mar 14
Waxing Gibbous
Mar 16
Full
Mar 23
Last Quarter
Mar 30
New
Apr 7
First Quarter

Hourly Weather History & Observations

Time (EDT) Temp. Windchill Dew Point Humidity Pressure Visibility Wind Dir Wind Speed Gust Speed Precip Events Conditions
12:15 AM 26.6 °F - 23.0 °F 86% 30.25 in 10.0 mi Calm Calm - N/A   Clear
12:35 AM 26.6 °F - 23.0 °F 86% 30.24 in 10.0 mi Calm Calm - N/A   Clear
12:55 AM 26.6 °F - 21.2 °F 80% 30.24 in 10.0 mi Calm Calm - N/A   Clear
1:15 AM 26.6 °F - 23.0 °F 86% 30.24 in 10.0 mi Calm Calm - N/A   Clear
1:35 AM 26.6 °F - 23.0 °F 86% 30.24 in 10.0 mi Calm Calm - N/A   Clear
1:55 AM 26.6 °F - 23.0 °F 86% 30.25 in 10.0 mi Calm Calm - N/A   Clear
2:15 AM 26.6 °F - 23.0 °F 86% 30.25 in 10.0 mi Calm Calm - N/A   Clear
2:35 AM 26.6 °F - 23.0 °F 86% 30.26 in 10.0 mi Calm Calm - N/A   Clear
2:55 AM 26.6 °F - 24.8 °F 93% 30.26 in 10.0 mi Calm Calm - N/A   Clear
3:15 AM 24.8 °F - 24.8 °F 100% 30.26 in 10.0 mi Calm Calm - N/A   Clear
3:35 AM 24.8 °F - 24.8 °F 100% 30.26 in 10.0 mi Calm Calm - N/A   Clear
3:55 AM 24.8 °F - 24.8 °F 100% 30.26 in 10.0 mi Calm Calm - N/A   Clear
4:15 AM 24.8 °F - 24.8 °F 100% 30.26 in 10.0 mi Calm Calm - N/A   Clear
4:35 AM 24.8 °F - 24.8 °F 100% 30.27 in 10.0 mi Calm Calm - N/A   Clear
4:55 AM 24.8 °F - 24.8 °F 100% 30.28 in 10.0 mi Calm Calm - N/A   Clear
5:15 AM 24.8 °F - 24.8 °F 100% 30.28 in 10.0 mi Calm Calm - N/A   Clear
5:35 AM 23.0 °F - 23.0 °F 100% 30.28 in 10.0 mi Calm Calm - N/A   Clear
5:55 AM 23.0 °F - 23.0 °F 100% 30.29 in 10.0 mi Calm Calm - N/A   Clear
6:15 AM 23.0 °F - 23.0 °F 100% 30.29 in 10.0 mi Calm Calm - N/A   Clear
6:35 AM 23.0 °F - 23.0 °F 100% 30.29 in 10.0 mi Calm Calm - N/A   Clear
6:55 AM 23.0 °F - 23.0 °F 100% 30.29 in 10.0 mi Calm Calm - N/A   Clear
7:15 AM 23.0 °F - 23.0 °F 100% 30.30 in 10.0 mi Calm Calm - N/A   Clear
7:35 AM 23.0 °F - 23.0 °F 100% 30.30 in 10.0 mi Calm Calm - N/A   Clear
7:55 AM 23.0 °F - 23.0 °F 100% 30.31 in 10.0 mi Calm Calm - N/A   Clear
8:15 AM 23.0 °F - 23.0 °F 100% 30.31 in 10.0 mi Calm Calm - N/A   Clear
8:35 AM 24.8 °F - 24.8 °F 100% 30.32 in 10.0 mi Calm Calm - N/A   Clear
8:55 AM 28.4 °F - 26.6 °F 93% 30.32 in 10.0 mi Calm Calm - N/A   Clear
9:15 AM 32.0 °F - 24.8 °F 75% 30.32 in 10.0 mi Calm Calm - N/A   Clear
9:35 AM 35.6 °F - 26.6 °F 70% 30.33 in 10.0 mi Calm Calm - N/A   Clear
9:55 AM 41.0 °F - 14.0 °F 33% 30.33 in 10.0 mi Calm Calm - N/A   Clear
10:15 AM 44.6 °F 41.4 °F 14.0 °F 29% 30.32 in 10.0 mi SSE 5.8 mph - N/A   Clear
10:35 AM 48.2 °F - 10.4 °F 22% 30.33 in 10.0 mi SSE 4.6 mph - N/A   Clear
10:55 AM 48.2 °F - 6.8 °F 19% 30.33 in 10.0 mi SSE 5.8 mph - N/A   Clear
11:15 AM 50.0 °F - 8.6 °F 19% 30.33 in 10.0 mi South 4.6 mph - N/A   Clear
11:35 AM 53.6 °F - 12.2 °F 19% 30.33 in 10.0 mi South 3.5 mph - N/A   Clear
11:55 AM 53.6 °F - 15.8 °F 22% 30.32 in 10.0 mi SSW 6.9 mph - N/A   Clear
12:15 PM 53.6 °F - 14.0 °F 21% 30.32 in 10.0 mi SW 8.1 mph - N/A   Clear
12:35 PM 53.6 °F - 14.0 °F 21% 30.31 in 10.0 mi SW 4.6 mph - N/A   Clear
12:55 PM 55.4 °F - 15.8 °F 21% 30.31 in 10.0 mi South 3.5 mph - N/A   Clear
1:15 PM 55.4 °F - 15.8 °F 21% 30.29 in 10.0 mi South 8.1 mph - N/A   Clear
1:35 PM 57.2 °F - 14.0 °F 18% 30.28 in 10.0 mi SSW 5.8 mph - N/A   Clear
1:55 PM 59.0 °F - 15.8 °F 19% 30.26 in 10.0 mi South 5.8 mph - N/A   Clear
2:15 PM 60.8 °F - 15.8 °F 17% 30.25 in 10.0 mi SW 8.1 mph - N/A   Clear
2:35 PM 60.8 °F - 14.0 °F 16% 30.23 in 10.0 mi South 4.6 mph - N/A   Clear
2:55 PM 62.6 °F - 15.8 °F 16% 30.21 in 10.0 mi SW 11.5 mph - N/A   Clear
3:15 PM 60.8 °F - 15.8 °F 17% 30.20 in 10.0 mi SW 10.4 mph - N/A   Clear
3:35 PM 62.6 °F - 15.8 °F 16% 30.19 in 10.0 mi SW 5.8 mph - N/A   Clear
3:55 PM 62.6 °F - 17.6 °F 18% 30.18 in 10.0 mi South 9.2 mph - N/A   Clear
4:15 PM 62.6 °F - 15.8 °F 16% 30.17 in 10.0 mi SSW 11.5 mph 17.3 mph N/A   Clear
4:35 PM 62.6 °F - 15.8 °F 16% 30.16 in 10.0 mi South 9.2 mph - N/A   Clear
4:55 PM 62.6 °F - 15.8 °F 16% 30.15 in 10.0 mi South 5.8 mph 17.3 mph N/A   Clear
5:15 PM 64.4 °F - 15.8 °F 15% 30.14 in 10.0 mi SSW 3.5 mph - N/A   Clear
5:35 PM 62.6 °F - 15.8 °F 16% 30.13 in 10.0 mi South 6.9 mph - N/A   Clear
5:55 PM 62.6 °F - 17.6 °F 18% 30.13 in 10.0 mi SW 4.6 mph - N/A   Clear
6:15 PM 62.6 °F - 19.4 °F 19% 30.12 in 10.0 mi SSW 8.1 mph - N/A   Clear
6:35 PM 60.8 °F - 17.6 °F 19% 30.12 in 10.0 mi SSW 5.8 mph - N/A   Clear
6:55 PM 59.0 °F - 19.4 °F 22% 30.13 in 10.0 mi SSW 4.6 mph - N/A   Clear
7:15 PM 59.0 °F - 21.2 °F 23% 30.13 in 10.0 mi SSW 3.5 mph - N/A   Clear
7:35 PM 57.2 °F - 21.2 °F 25% 30.13 in 10.0 mi Calm Calm - N/A   Clear
7:55 PM 57.2 °F - 21.2 °F 25% 30.14 in 10.0 mi Calm Calm - N/A   Clear
8:15 PM 55.4 °F - 24.8 °F 31% 30.14 in 10.0 mi Calm Calm - N/A   Clear
8:35 PM 53.6 °F - 24.8 °F 33% 30.13 in 10.0 mi Calm Calm - N/A   Clear
8:55 PM 51.8 °F - 23.0 °F 33% 30.13 in 10.0 mi Calm Calm - N/A   Clear
9:15 PM 48.2 °F - 24.8 °F 40% 30.13 in 10.0 mi Calm Calm - N/A   Clear
9:35 PM 48.2 °F - 26.6 °F 43% 30.14 in 10.0 mi Calm Calm - N/A   Clear
9:55 PM 44.6 °F - 28.4 °F 53% 30.13 in 10.0 mi Calm Calm - N/A   Clear
10:15 PM 44.6 °F - 28.4 °F 53% 30.14 in 10.0 mi Calm Calm - N/A   Clear
10:35 PM 44.6 °F - 28.4 °F 53% 30.14 in 10.0 mi Calm Calm - N/A   Clear
10:55 PM 46.4 °F - 26.6 °F 46% 30.15 in 10.0 mi Calm Calm - N/A   Clear
11:15 PM 48.2 °F - 24.8 °F 40% 30.14 in 10.0 mi Calm Calm - N/A   Clear
11:35 PM 48.2 °F - 32.0 °F 54% 30.14 in 10.0 mi Calm Calm - N/A   Clear
11:55 PM 48.2 °F - 26.6 °F 43% 30.13 in 10.0 mi Calm Calm - N/A   Partly Cloudy